This demonstration page uses our WeatherBlox Daily Observations layout. Learn more.

Left ArrowRight Arrow

Hourly Observations for May 2, 2020

Temp ( °F °C ) Dew Point ( °F °C ) Humidity (%) Winds ( mph kmh ) Pressure ( in mb ) Visibility ( mi km ) Precip ( " mm )
12:56 am 00:56 Clear 66 18.9 47 8.3 50 50 N 14 22 29.90 1013 10 16 0.00 0.00
1:56 am 01:56 Mostly Cloudy 65 18.3 46 7.8 51 51 E 23 37 29.87 1011 10 16 0.00 0.00
2:03 am 02:03 Cloudy with Light Rain 64 18 46 8 52 52 NE 20 31 29.88 1012 10 16 0.00 0.00
2:56 am 02:56 Mostly Clear 63 17.2 47 8.3 56 56 N 10 17 29.93 1014 10 16 0.00 0.00
3:56 am 03:56 Partly Cloudy 60 15.6 48 8.9 65 65 NNE 15 24 29.93 1013 10 16 0.00 0.00
4:56 am 04:56 Cloudy 60 15.6 47 8.3 62 62 NNE 17 28 29.93 1014 10 16 0.00 0.00
5:56 am 05:56 Cloudy with Light Rain 56 13.3 50 10 81 81 NNE 23 37 29.97 1015 10 16 0.00 0.00
6:56 am 06:56 Mostly Sunny 54 12.2 50 10 87 87 NE 14 22 30.00 1016 10 16 0.00 0.00
7:56 am 07:56 Mostly Cloudy 54 12.2 50 10 87 87 NNE 16 26 30.02 1017 10 16 0.00 0.00
8:56 am 08:56 Sunny 55 12.8 49 9.4 80 80 NE 13 20 30.03 1017 10 16 0.00 0.00
9:56 am 09:56 Mostly Cloudy 58 14.4 50 10 75 75 N 22 35 30.07 1018 10 16 0.00 0.00
10:56 am 10:56 Mostly Sunny 63 17.2 48 8.9 58 58 NNE 23 37 30.06 1018 10 16 0.00 0.00
11:56 am 11:56 Cloudy 62 16.7 46 7.8 56 56 NNE 18 30 30.08 1019 10 16 0.00 0.00
12:56 pm 12:56 Cloudy 62 16.7 47 8.3 58 58 NNE 15 24 30.09 1019 10 16 0.00 0.00
1:56 pm 13:56 Cloudy 63 17.2 47 8.3 56 56 NE 15 24 30.07 1018 10 16 0.00 0.00
2:56 pm 14:56 Mostly Cloudy 64 17.8 46 7.8 52 52 NNE 17 28 30.06 1018 10 16 0.00 0.00
3:56 pm 15:56 Mostly Sunny 67 19.4 46 7.8 47 47 N 18 30 30.04 1017 10 16 0.00 0.00
4:56 pm 16:56 Partly Cloudy 67 19.4 42 5.6 41 41 NE 20 31 30.02 1017 10 16 0.00 0.00
5:56 pm 17:56 Cloudy 64 17.8 43 6.1 46 46 NNE 14 22 30.04 1017 10 16 0.00 0.00
6:56 pm 18:56 Cloudy 63 17.2 39 3.9 41 41 NE 14 22 30.04 1017 10 16 0.00 0.00
7:56 pm 19:56 Cloudy 62 16.7 40 4.4 44 44 NE 9 15 30.06 1018 10 16 0.00 0.00
8:56 pm 20:56 Cloudy 60 15.6 42 5.6 52 52 NNE 6 9 30.07 1018 10 16 0.00 0.00
9:56 pm 21:56 Cloudy 57 13.9 44 6.7 62 62 NNE 6 9 30.09 1019 10 16 0.00 0.00
10:56 pm 22:56 Mostly Cloudy 55 12.8 43 6.1 64 64 Calm 30.08 1019 10 16 0.00 0.00
11:56 pm 23:56 Cloudy 55 12.8 42 5.6 62 62 WNW 6 9 30.09 1019 10 16 0.00 0.00

Powered by AerisWeather